Weather WX

World > North America > United States > Mississippi

University Of Mississippi, Mississippi Regional Weather

Lat: 34.37N, Lon: 89.53W
Wx Zone: MSZ013
Warning FLW WEATHER ALERT - (More Info. Click Here) Warning
Feedback

University Of Mississippi, MS Regional Weather

Expires:201906192200;;749718
ASUS44 KJAN 192110
RWRMS 

MISSISSIPPI HOURLY WEATHER ROUNDUP
NATIONAL WEATHER SERVICE JACKSON MS
400 PM CDT WED JUN 19 2019

NOTE: "FAIR: INDICATES FEW OR NO CLOUDS BELOW 12,000 FEET WITH NO
SIGNIFICANT WEATHER AND/OR OBSTRUCTIONS TO VISIBILITY.


MSZ001>002-007>008-010>013-018>021-025>028-034>036-192200-
NORTHWEST MISSISSIPPI
  
CITY           SKY/WX    TMP DP  RH WIND       PRES   REMARKS
BATESVILLE     FAIR      90  73  58 SW16      29.73F HX  98           
CLARKSDALE     SUNNY     95  70  43 SW14      29.73S HX 101           
CLEVELAND      FAIR      89  74  62 SW15      29.76S HX  98           
GREENWOOD      FAIR      89  72  56 SW15      29.76F HX  96           
GREENVILLE     FAIR      91  72  53 SW16      29.75F HX  98           
OLIVE BRANCH   PTSUNNY   88  75  66 SW12G25   29.71F HX  97           
OXFORD         FAIR      88  72  58 SW14G20   29.76S HX  94           
TUNICA           N/A     90  68  48 SW17G25   29.73S HX  93           
WINONA         FAIR      87  76  69 S7        29.78F HX  97           
$$


SKY/WX - Weather  TMP - Temperature  DP - Dew Point  RH - Relative Humidity
WIND - Wind Direction/Speed PRES - Barometric Pressure VSB - Visibility
WCI - Wind Chill Index E13G22 Wind - East Wind 13 mph/Gusts of 22 mph